DateTimeUTC,F1_A11,F1_S11,BsB_S11,BsG_S11,BsR_S11,BbsB_S11,BbsG_S11,BbsR_S11,BaB_A11,BaG_A11,BaR_A11,Tu_S11,T_S11,Uu_S11,U_S11,P_S11,T1_A11
2021-03-10T13:00:00Z,00000200,21000000,,,,,,,0000.07,-000.31,0000.29,17.2,24.7,,00.0,0641.0,30.9
2021-03-10T13:01:00Z,00000200,21000000,,,,,,,0000.54,0000.32,0000.01,17.2,24.7,,00.0,0641.0,30.9
2021-03-10T13:02:00Z,00000200,21000000,,,,,,,-000.01,0000.20,0000.20,17.2,24.7,,00.0,0641.0,30.9
2021-03-10T13:03:00Z,00000200,61000000,,,,,,,0000.96,0000.84,0000.68,17.2,24.7,,00.0,0641.0,30.9
2021-03-10T13:04:00Z,00000200,41000000,0002.44,0001.59,0000.98,0000.16,0000.26,0000.11,0000.92,0000.62,0000.18,17.3,24.4,,00.0,0641.9,30.9
2021-03-10T13:05:00Z,00000200,01000000,0002.11,0001.48,0000.57,0000.23,0000.44,0000.16,0000.64,0000.79,0000.69,17.3,24.4,,00.0,0641.9,30.9
2021-03-10T13:06:00Z,00000200,01000000,0002.46,0001.51,0000.76,0000.46,0000.13,0000.05,0001.20,0000.58,0000.35,17.3,24.3,,00.0,0641.9,30.9
2021-03-10T13:07:00Z,00000200,01000000,0002.78,0001.72,0000.89,0000.32,0000.34,0000.15,0000.66,0001.25,0001.03,17.3,24.3,,00.0,0641.9,30.9
2021-03-10T13:08:00Z,00000200,01000000,0002.50,0001.51,0000.97,0000.57,0000.20,0000.39,0000.67,0000.20,0000.14,17.2,24.3,,00.0,0641.9,30.9
2021-03-10T13:09:00Z,00000200,01000000,0002.36,0001.82,0000.68,0000.22,0000.22,-000.06,0000.97,0001.11,0000.57,17.2,24.3,,00.0,0641.9,30.9
2021-03-10T13:10:00Z,00000200,01000000,0002.42,0001.59,0000.68,0000.52,0000.19,0000.16,0001.03,0000.59,0001.03,17.2,24.3,,00.0,0641.9,30.9
2021-03-10T13:11:00Z,00000200,01000000,0003.02,0001.54,0000.84,0000.73,0000.46,0000.11,0000.87,0000.79,0000.27,17.2,24.3,,00.0,0641.8,30.9
2021-03-10T13:12:00Z,00000200,01000000,0002.57,0001.60,0000.70,0000.65,0000.15,0000.22,0000.71,0001.06,0000.52,17.2,24.2,,00.0,0641.8,30.9
2021-03-10T13:13:00Z,00000200,01000000,0002.46,0001.80,0000.81,0000.50,0000.39,0000.11,0000.79,0000.63,0000.84,17.2,24.2,,00.0,0641.8,30.9
2021-03-10T13:14:00Z,00000200,01000000,0002.13,0001.58,0001.04,0000.12,0000.33,0000.24,0000.66,0000.72,0000.42,17.2,24.2,,00.0,0641.8,30.9
2021-03-10T13:15:00Z,00000200,01000000,0002.36,0001.24,0000.65,0000.58,0000.52,0000.19,0001.02,0000.84,0000.69,17.3,24.2,,00.0,0641.8,30.9
2021-03-10T13:16:00Z,00000200,01000000,0001.64,0001.82,0001.10,0000.82,0000.07,0000.32,0000.98,0001.15,0000.99,17.3,24.2,,00.0,0641.8,30.9
2021-03-10T13:17:00Z,00000200,01000000,0002.29,0001.74,0000.77,0000.36,0000.28,0000.12,0001.26,0000.97,0000.63,17.4,24.3,,00.0,0641.8,30.9
2021-03-10T13:18:00Z,00000200,01000000,0002.45,0001.34,0000.89,0000.16,0000.27,0000.15,0001.05,0000.39,0000.43,17.5,24.3,,00.0,0641.7,31.0
2021-03-10T13:19:00Z,00000200,01000000,0002.42,0001.40,0000.79,0000.23,0000.41,0000.05,0000.42,0000.88,0000.28,17.6,24.3,,00.0,0641.8,31.0
2021-03-10T13:20:00Z,00000200,01000000,0002.29,0001.11,0000.77,0000.70,0000.13,0000.19,0000.48,0000.12,0000.55,17.6,24.4,,00.0,0641.8,31.0
2021-03-10T13:21:00Z,00000200,01000000,0003.06,0001.33,0000.80,0000.36,0000.33,0000.06,0000.54,0001.05,0000.14,17.6,24.4,,00.0,0641.8,31.0
2021-03-10T13:22:00Z,00000200,01000000,0002.59,0001.17,0000.93,0000.65,0000.26,0000.16,0000.55,0000.40,0000.73,17.6,24.4,,00.0,0641.8,31.0
2021-03-10T13:23:00Z,00000200,01000000,0002.00,0001.49,0000.59,0000.65,0000.54,0000.04,0000.88,0000.41,0000.25,17.6,24.4,,00.0,0641.8,31.0
2021-03-10T13:24:00Z,00000200,01000000,0002.28,0001.29,0000.80,0000.51,0000.14,-000.05,0000.51,0000.72,0000.52,17.6,24.4,,00.0,0641.8,31.0
2021-03-10T13:25:00Z,00000200,01000000,0002.57,0001.37,0000.70,0000.64,0000.28,0000.16,0001.01,0000.73,0000.53,17.5,24.4,,00.0,0641.8,31.0
2021-03-10T13:26:00Z,00000200,01000000,0001.87,0001.51,0000.79,0000.35,0000.30,0000.07,0000.12,0000.25,0000.39,17.5,24.3,,00.0,0641.7,31.0
2021-03-10T13:27:00Z,00000200,01000000,0002.54,0001.48,0000.81,0000.31,0000.26,-000.04,0001.22,0001.32,0000.60,17.5,24.3,,00.0,0641.7,31.0
2021-03-10T13:28:00Z,00000200,01000000,0002.87,0001.31,0000.89,0000.08,0000.32,0000.09,0000.73,0000.13,0000.55,17.5,24.3,,00.0,0641.7,30.9
2021-03-10T13:29:00Z,00000200,01000000,0002.21,0001.49,0000.72,0000.10,0000.36,0000.21,0000.98,0001.46,0000.82,17.5,24.3,,00.0,0641.7,30.9
2021-03-10T13:30:00Z,00000200,01000000,0002.79,0001.50,0000.62,0000.18,0000.26,-000.17,0000.67,0000.53,0000.34,17.6,24.3,,00.0,0641.7,31.0
2021-03-10T13:31:00Z,00000200,01000000,0002.65,0001.45,0000.68,0000.76,0000.20,0000.18,0000.90,0000.64,0000.43,17.6,24.4,,00.0,0641.7,31.0
2021-03-10T13:32:00Z,00000200,01000000,0002.66,0001.39,0000.90,0000.44,0000.33,0000.07,0000.72,0000.99,0000.78,17.7,24.4,,00.0,0641.6,31.0
2021-03-10T13:33:00Z,00000200,01000000,0002.12,0001.50,0000.87,0000.62,0000.29,0000.17,0001.47,0000.86,0000.72,17.8,24.5,,00.0,0641.7,31.0
2021-03-10T13:34:00Z,00000200,01000000,0001.89,0001.25,0000.49,0000.52,0000.32,-000.05,0000.34,0000.48,0000.66,17.9,24.5,,00.0,0641.6,31.0
2021-03-10T13:35:00Z,00000200,01000000,0002.34,0001.33,0000.73,0000.13,0000.21,0000.01,0000.76,0000.50,0000.12,17.9,24.6,,00.0,0641.7,31.0
2021-03-10T13:36:00Z,00000200,01000000,0002.08,0001.65,0000.92,0000.30,0000.24,0000.13,0000.40,0001.03,0000.61,18.0,24.6,,00.0,0641.6,31.0
2021-03-10T13:37:00Z,00000200,01000000,0002.65,0001.39,0000.81,0000.40,0000.40,0000.17,0001.07,0000.58,0000.62,18.0,24.6,,00.0,0641.6,31.0
2021-03-10T13:38:00Z,00000200,01010000,0002.89,0001.33,0000.85,0000.12,0000.07,0000.27,0000.98,0000.86,0000.46,18.0,24.6,,00.0,0641.7,31.0
2021-03-10T13:39:00Z,00000200,01000000,0002.13,0001.50,0001.03,0000.40,0000.41,-000.17,0001.15,0001.25,0001.03,17.9,24.6,,00.0,0641.7,31.0
2021-03-10T13:40:00Z,00000200,01000000,0002.00,0001.37,0000.70,0000.70,0000.35,0000.08,0000.70,0000.12,0000.09,17.9,24.6,,00.0,0641.7,31.0
2021-03-10T13:41:00Z,00000200,01000000,0002.14,0001.44,0000.85,0000.45,0000.31,0000.13,0000.67,0000.41,0000.60,17.8,24.6,,00.0,0641.7,31.0
2021-03-10T13:42:00Z,00000200,01000000,0002.34,0001.51,0000.70,0000.30,0000.24,0000.07,0000.21,0000.67,0000.32,17.8,24.6,,00.0,0641.7,31.0
2021-03-10T13:43:00Z,00000200,01000000,0002.61,0001.52,0000.58,-000.06,0000.40,0000.12,0001.05,0000.90,0000.54,17.8,24.5,,00.0,0641.7,31.0
2021-03-10T13:44:00Z,00000200,01000000,0002.48,0001.48,0000.76,0000.31,0000.28,-000.12,0000.73,0000.54,0000.30,17.8,24.5,,00.0,0641.7,31.0
2021-03-10T13:45:00Z,00000200,01000000,0002.39,0001.73,0000.70,0000.27,0000.44,0000.09,0000.63,0000.93,0000.79,17.7,24.5,,00.0,0641.7,31.0
2021-03-10T13:46:00Z,00000200,01000000,0002.15,0001.54,0000.80,0000.35,0000.51,0000.19,0000.98,0000.70,0000.43,17.7,24.5,,00.0,0641.7,30.9
2021-03-10T13:47:00Z,00000200,01000000,0002.72,0001.57,0000.81,0000.22,0000.16,0000.23,0000.89,0000.94,0000.95,17.7,24.5,,00.0,0641.7,30.9
2021-03-10T13:48:00Z,00000200,01000000,0002.67,0001.55,0000.68,0000.56,0000.34,0000.33,0000.84,0000.53,-000.05,17.6,24.5,,00.0,0641.6,30.9
2021-03-10T13:49:00Z,00000200,01000000,0002.25,0001.57,0000.72,0000.62,0000.34,0000.38,0000.84,0000.37,0001.05,17.6,24.5,,00.0,0641.6,30.9
2021-03-10T13:50:00Z,00000200,01000000,0003.06,0001.61,0000.86,0000.50,0000.28,-000.17,0001.06,0001.48,0000.80,17.6,24.5,,00.0,0641.6,30.9
2021-03-10T13:51:00Z,00000200,01000000,0001.89,0001.36,0000.78,0000.51,0000.34,-000.01,0001.19,0000.97,0000.56,17.6,24.4,,00.0,0641.6,30.9
2021-03-10T13:52:00Z,00000200,01000000,0002.25,0001.39,0000.95,0000.59,0000.24,0000.06,0000.97,0001.07,0000.67,17.5,24.4,,00.0,0641.6,30.9
2021-03-10T13:53:00Z,00000200,01000000,0002.65,0001.31,0000.91,0000.47,0000.28,0000.27,0001.11,0000.69,0001.06,17.5,24.4,,00.0,0641.6,30.9
2021-03-10T13:54:00Z,00000200,01000000,0002.41,0001.38,0000.49,0000.07,0000.34,0000.11,0001.02,0000.63,0000.10,17.5,24.4,,00.0,0641.6,30.9
2021-03-10T13:55:00Z,00000200,01000000,0001.90,0001.31,0000.75,0000.82,0000.29,-000.04,0000.22,0000.82,0000.23,17.5,24.4,,00.0,0641.6,30.9
2021-03-10T13:56:00Z,00000200,01000000,0002.08,0001.39,0000.78,0001.02,0000.46,0000.07,0000.71,0000.63,0000.55,17.4,24.4,,00.0,0641.6,30.9
2021-03-10T13:57:00Z,00000200,41000000,,,,,,,-000.45,-000.96,-000.48,17.5,24.4,,00.0,0641.6,30.9
2021-03-10T13:58:00Z,00000200,61000000,,,,,,,-000.08,0000.09,0000.22,17.2,24.5,,00.0,0640.7,30.9
2021-03-10T13:59:00Z,00000200,21000000,,,,,,,0000.63,0000.34,0000.12,17.2,24.6,,00.0,0640.6,30.9
